Weather History for Appleton, MN

Change the Weather History Date:

Wednesday, November 9, 2011

  Actual Average Record
Temperature  
Mean Temperature 32 °F -  
Max Temperature 44 °F 40 °F 68 °F (1999)
Min Temperature 19 °F 23 °F 17 °F (2007)
Degree Days  
Heating Degree Days 34    
Moisture  
Dew Point 21 °F    
Average Humidity 65    
Maximum Humidity 100    
Minimum Humidity 34    
Precipitation  
Precipitation 0.00 in - - ()
Sea Level Pressure  
Sea Level Pressure 30.12 in    
Wind  
Wind Speed 10 mph (NW)    
Max Wind Speed 25 mph    
Max Gust Speed 33 mph    
Visibility 10 miles    
Events      
Averages and records for this station are not official NWS values.
T = Trace of Precipitation, MM = Missing Value Source: NWS Daily Summary

Daily Weather History Graph

Daily Weather History Graph

Search for Another Location

Airport:

Trip Planner

Search our weather history database for the weather conditions in past years. The results will help you decide how hot, cold, wet, or windy it might be!

Date:

Astronomy

Nov. 09, 2011 Rise Set
Actual Time 7:13 AM CST 5:01 PM CST
Civil Twilight 6:42 AM CST 5:32 PM CST
Nautical Twilight 6:07 AM CST 6:08 PM CST
Astronomical Twilight 5:32 AM CST 6:42 PM CST
Moon 4:13 PM CST (11/9) 6:10 AM CST (11/9)
Length of Visible Light 10h 50m
Length of Day
9h 47m
Waxing Gibbous, 99% of the Moon is Illuminated
Nov 9
Waxing Gibbous
Nov 10
Full
Nov 18
Last Quarter
Nov 25
New
Dec 2
First Quarter

Hourly Weather History & Observations

Time (CST) Temp. Windchill Dew Point Humidity Pressure Visibility Wind Dir Wind Speed Gust Speed Precip Events Conditions
12:15 AM 24.8 °F - 21.2 °F 86% 30.15 in 10.0 mi Calm Calm - N/A   Clear
12:35 AM 24.8 °F - 21.2 °F 86% 30.15 in 10.0 mi Calm Calm - N/A   Clear
12:55 AM 23.0 °F - 21.2 °F 93% 30.15 in 10.0 mi Calm Calm - N/A   Clear
1:15 AM 23.0 °F - 19.4 °F 86% 30.15 in 10.0 mi Calm Calm - N/A   Clear
1:35 AM 21.2 °F 16.4 °F 21.2 °F 100% 30.15 in 10.0 mi SE 3.5 mph - N/A   Clear
1:55 AM 24.8 °F - 23.0 °F 93% 30.15 in 10.0 mi Calm Calm - N/A   Clear
2:15 AM 24.8 °F - 21.2 °F 86% 30.14 in 10.0 mi Calm Calm - N/A   Scattered Clouds
2:35 AM 21.2 °F - 17.6 °F 86% 30.13 in 10.0 mi Calm Calm - N/A   Clear
2:55 AM 19.4 °F 10.4 °F 17.6 °F 93% 30.12 in 10.0 mi WNW 6.9 mph - N/A   Clear
3:15 AM 19.4 °F 14.3 °F 17.6 °F 93% 30.11 in 10.0 mi West 3.5 mph - N/A   Clear
3:35 AM 21.2 °F 14.9 °F 19.4 °F 93% 30.11 in 10.0 mi West 4.6 mph - N/A   Clear
3:55 AM 19.4 °F 11.5 °F 17.6 °F 93% 30.10 in 10.0 mi West 5.8 mph - N/A   Clear
4:15 AM 19.4 °F 10.4 °F 17.6 °F 93% 30.10 in 10.0 mi West 6.9 mph - N/A   Clear
4:35 AM 24.8 °F 15.3 °F 21.2 °F 86% 30.11 in 10.0 mi West 9.2 mph - N/A   Clear
4:55 AM 24.8 °F 16.1 °F 19.4 °F 80% 30.10 in 10.0 mi West 8.1 mph - N/A   Clear
5:15 AM 23.0 °F 13.1 °F 19.4 °F 86% 30.10 in 10.0 mi WNW 9.2 mph - N/A   Clear
5:35 AM 26.6 °F 16.8 °F 23.0 °F 86% 30.11 in 10.0 mi NW 10.4 mph - N/A   Clear
5:55 AM 28.4 °F 19.1 °F 23.0 °F 80% 30.11 in 10.0 mi NW 10.4 mph - N/A   Clear
6:15 AM 28.4 °F 17.5 °F 24.8 °F 86% 30.11 in 10.0 mi NW 13.8 mph - N/A   Clear
6:35 AM 30.2 °F 20.2 °F 24.8 °F 80% 30.12 in 10.0 mi NW 12.7 mph - N/A   Clear
6:55 AM 28.4 °F 18.0 °F 24.8 °F 86% 30.12 in 10.0 mi NW 12.7 mph - N/A   Clear
7:15 AM 30.2 °F 20.8 °F 24.8 °F 80% 30.13 in 10.0 mi NW 11.5 mph - N/A   Clear
7:35 AM 28.4 °F 18.0 °F 24.8 °F 86% 30.14 in 10.0 mi NW 12.7 mph - N/A   Clear
7:55 AM 30.2 °F 20.8 °F 24.8 °F 80% 30.15 in 10.0 mi NW 11.5 mph - N/A   Clear
8:15 AM 30.2 °F 21.3 °F 24.8 °F 80% 30.15 in 10.0 mi NW 10.4 mph - N/A   Clear
8:35 AM 32.0 °F 22.5 °F 24.8 °F 75% 30.15 in 10.0 mi NW 12.7 mph - N/A   Clear
8:55 AM 32.0 °F 21.2 °F 24.8 °F 75% 30.15 in 10.0 mi NW 16.1 mph 19.6 mph N/A   Clear
9:15 AM 33.8 °F 22.5 °F 24.8 °F 70% 30.15 in 10.0 mi NW 19.6 mph - N/A   Clear
9:35 AM 33.8 °F 23.5 °F 24.8 °F 70% 30.15 in 10.0 mi NW 16.1 mph 24.2 mph N/A   Clear
9:55 AM 35.6 °F 25.5 °F 24.8 °F 65% 30.16 in 10.0 mi NW 17.3 mph 21.9 mph N/A   Clear
10:15 AM 35.6 °F 25.2 °F 24.8 °F 65% 30.16 in 10.0 mi NNW 18.4 mph 23.0 mph N/A   Clear
10:35 AM 37.4 °F 27.8 °F 24.8 °F 60% 30.16 in 10.0 mi NW 17.3 mph - N/A   Clear
10:55 AM 37.4 °F 27.5 °F 24.8 °F 60% 30.16 in 10.0 mi NW 18.4 mph 24.2 mph N/A   Clear
11:15 AM 39.2 °F 29.6 °F 24.8 °F 56% 30.15 in 10.0 mi NW 19.6 mph 24.2 mph N/A   Clear
11:35 AM 39.2 °F 29.0 °F 24.8 °F 56% 30.15 in 10.0 mi NW 21.9 mph 26.5 mph N/A   Clear
12:15 PM 42.8 °F 33.8 °F 21.2 °F 42% 30.13 in 10.0 mi NW 21.9 mph - N/A   Clear
12:36 PM 42.8 °F 33.1 °F 21.2 °F 42% 30.12 in 10.0 mi NW 25.3 mph 28.8 mph N/A   Clear
12:55 PM 44.6 °F 35.5 °F 21.2 °F 39% 30.11 in 10.0 mi NNW 25.3 mph 29.9 mph N/A   Clear
1:15 PM 44.6 °F 36.1 °F 19.4 °F 37% 30.11 in 10.0 mi NW 21.9 mph 29.9 mph N/A   Clear
1:35 PM 44.6 °F 36.1 °F 19.4 °F 37% 30.10 in 10.0 mi NNW 21.9 mph 27.6 mph N/A   Clear
1:55 PM 44.6 °F 35.9 °F 17.6 °F 34% 30.10 in 10.0 mi NW 23.0 mph 29.9 mph N/A   Clear
2:15 PM 44.6 °F 36.4 °F 17.6 °F 34% 30.10 in 10.0 mi NW 20.7 mph 31.1 mph N/A   Scattered Clouds
2:35 PM 42.8 °F 33.3 °F 19.4 °F 39% 30.10 in 10.0 mi NNW 24.2 mph 31.1 mph N/A   Mostly Cloudy
2:55 PM 42.8 °F 33.8 °F 19.4 °F 39% 30.10 in 10.0 mi NW 21.9 mph 29.9 mph N/A   Mostly Cloudy
3:15 PM 42.8 °F 33.3 °F 19.4 °F 39% 30.10 in 10.0 mi NW 24.2 mph 29.9 mph N/A   Mostly Cloudy
3:35 PM 42.8 °F 34.8 °F 19.4 °F 39% 30.10 in 10.0 mi NW 17.3 mph 27.6 mph N/A   Mostly Cloudy
3:55 PM 42.8 °F 33.5 °F 19.4 °F 39% 30.10 in 10.0 mi NW 23.0 mph 28.8 mph N/A   Mostly Cloudy
4:15 PM 41.0 °F 31.4 °F 17.6 °F 39% 30.10 in 10.0 mi NW 21.9 mph 33.4 mph N/A   Mostly Cloudy
4:35 PM 41.0 °F 31.9 °F 17.6 °F 39% 30.10 in 10.0 mi NW 19.6 mph 28.8 mph N/A   Mostly Cloudy
4:55 PM 39.2 °F 28.7 °F 17.6 °F 42% 30.10 in 10.0 mi NW 23.0 mph 29.9 mph N/A   Mostly Cloudy
5:15 PM 39.2 °F 29.8 °F 17.6 °F 42% 30.10 in 10.0 mi NW 18.4 mph - N/A   Mostly Cloudy
5:35 PM 37.4 °F 28.5 °F 19.4 °F 48% 30.10 in 10.0 mi NW 15.0 mph 20.7 mph N/A   Mostly Cloudy
5:55 PM 39.2 °F 30.5 °F 19.4 °F 45% 30.10 in 10.0 mi NW 16.1 mph 20.7 mph N/A   Overcast
6:15 PM 39.2 °F 29.0 °F 21.2 °F 49% 30.10 in 10.0 mi NW 21.9 mph 25.3 mph N/A   Overcast
6:35 PM 39.2 °F 28.7 °F 21.2 °F 49% 30.10 in 10.0 mi WNW 23.0 mph 28.8 mph N/A   Overcast
6:55 PM 39.2 °F 28.7 °F 23.0 °F 52% 30.10 in 10.0 mi NW 23.0 mph 28.8 mph N/A   Overcast
7:15 PM 39.2 °F 29.3 °F 23.0 °F 52% 30.10 in 10.0 mi NW 20.7 mph 32.2 mph N/A   Overcast
7:35 PM 37.4 °F 25.9 °F 23.0 °F 56% 30.10 in 10.0 mi NW 25.3 mph 33.4 mph N/A   Overcast
8:15 PM 37.4 °F 28.2 °F 23.0 °F 56% 30.10 in 10.0 mi NW 16.1 mph 25.3 mph N/A   Overcast
8:35 PM 37.4 °F 27.8 °F 23.0 °F 56% 30.10 in 10.0 mi NW 17.3 mph - N/A   Overcast
8:55 PM 37.4 °F 27.5 °F 23.0 °F 56% 30.10 in 10.0 mi NW 18.4 mph 24.2 mph N/A   Overcast
9:15 PM 37.4 °F 27.5 °F 23.0 °F 56% 30.10 in 10.0 mi NW 18.4 mph 26.5 mph N/A   Overcast
9:35 PM 37.4 °F 28.2 °F 23.0 °F 56% 30.10 in 10.0 mi NW 16.1 mph 19.6 mph N/A   Overcast
9:54 PM 37.4 °F 28.9 °F 23.0 °F 56% 30.10 in 10.0 mi NNW 13.8 mph 17.3 mph N/A   Overcast
10:14 PM 37.4 °F 28.2 °F 23.0 °F 56% 30.09 in 10.0 mi NNW 16.1 mph 20.7 mph N/A   Overcast
10:35 PM 37.4 °F 27.8 °F 23.0 °F 56% 30.09 in 10.0 mi NNW 17.3 mph 23.0 mph N/A   Overcast
10:55 PM 35.6 °F 24.8 °F 23.0 °F 60% 30.09 in 10.0 mi NW 19.6 mph 26.5 mph N/A   Overcast
11:14 PM 35.6 °F 26.2 °F 23.0 °F 60% 30.09 in 10.0 mi NW 15.0 mph 24.2 mph N/A   Overcast
11:34 PM 35.6 °F 25.5 °F 23.0 °F 60% 30.09 in 10.0 mi NW 17.3 mph 26.5 mph N/A   Overcast
11:55 PM 35.6 °F 25.2 °F 21.2 °F 56% 30.09 in 10.0 mi NW 18.4 mph 24.2 mph N/A   Overcast